Main page
METAR-TAF:

METAR-TAF

Airports :

Shaikh Zayed International Airport

Rahim Yar Khan, Pakistan

latitude: 28-23-02N, longitude: 70-16-47E, elevation: 83 m

METAR: missing

Time: 09:32 (04:32 UTC)

Forecast

The report was made 6 hours and 47 minutes ago, at 21:45 UTC
Forecast valid from 22 at 00 UTC to 22 at 18 UTC
Wind 10 kt from the Southwest
Visibility: 4000 m
Few clouds at a height of 12000 ft
haze

TAF: OPRK 212145Z 2200/2218 23010KT 4000 HZ FEW120 TN31/2201Z TX42/2210Z

Weather observations and forecasts of more than 4000 airports (METAR and TAF reports).

The available stations are represented by yellow and red dots on the map.

Hover mouse over dot to see the name of the station.

Then click to see weather observations and forecasts.

To change the map : click on the green buttons with a black cross to zoom in, on the green button with a dash to zoom out, or on the green arrows for adjacent maps.


METAR-TAF: